Prox-1
1 44339U 19036A   25037.68259574  .00017750  00000-0  24952-2 0  9999
2 44339  23.9967 146.7161 0008534 109.3040 250.8380 14.75766141299901
SONATE
1 44400U 19038Q   25037.56281935  .00072198  00000-0  97008-3 0  9993
2 44400  97.7105  51.7484 0009161 359.3519   0.7722 15.57623718310247
Taurus 1
1 44530U 19059C   25037.81338080  .00012422  00000-0  24438-2 0  9992
2 44530  98.5898 171.7639 0009351  54.1512 306.0555 14.62707298285976
Duchifat 3
1 44854U 19089C   25037.38650257  .00042240  00000-0  12750-2 0  9994
2 44854  36.9496  50.9073 0010525 245.0744 114.8915 15.33279130283946
TO-108
1 44881U 19093C   25037.82318950  .00002162  00000-0  25875-3 0  9991
2 44881  97.8052 116.0175 0012627 275.2213  84.7561 14.85100597277859
FloripaSat 1
1 44885U 19093G   25037.79285312  .00010566  00000-0  94571-3 0  9992
2 44885  97.8233 125.3325 0009901 254.5675 105.4453 14.95990555278378
RS-44
1 44909U 19096E   25037.73226787  .00000011  00000-0  48316-5 0  9999
2 44909  82.5238 308.9206 0216585 222.6449 135.7664 12.79738144239024
UPMSat 2
1 46276U 20061E   25037.66631183  .00047642  00000-0  78968-3 0  9999
2 46276  97.2644 109.3961 0000690  47.0171 313.1140 15.52010861246300
AmicalSat
1 46287U 20061R   25010.85863821  .11283921  24654-5  56408-3 0  9994
2 46287  97.2840  89.8720 0009935 281.1985  78.8199 16.41970930241877
SALSAT
1 46495U 20068K   25037.49257052  .00011772  00000-0  55411-3 0  9992
2 46495  97.8471  10.2036 0010752 220.6847 139.3585 15.19662766239818
CubeSX-Sirius-HSE
1 47951U 21022V   25037.77196245  .00080332  00000-0  13678-2 0  9994
2 47951  97.4348 304.7873 0010234  38.4188 321.7791 15.51060394214581
CubeSX-HSE
1 47952U 21022W   25037.75461588  .00082109  00000-0  13747-2 0  9999
2 47952  97.4348 304.9418 0009932  35.3511 324.8398 15.51531670214596
KSU-Cubesat
1 47954U 21022Y   25037.73186457  .00201344  00000-0  17120-2 0  9991
2 47954  97.4330 308.7494 0007652  49.1999 310.9925 15.68951565214550
GRBAlpha
1 47959U 21022AD  25037.78011791  .00083844  00000-0  14092-2 0  9997
2 47959  97.4340 305.1310 0010197  37.5199 322.6762 15.51412821213428
Orbicraft-Zorkiy
1 47960U 21022AE  25037.76731147  .00117037  00000-0  13706-2 0  9994
2 47960  97.4335 308.0624 0008467  40.8488 319.3403 15.61112222214271
TUBIN
1 48900U 21059X   25037.73415174  .00043512  00000-0  85613-3 0  9998
2 48900  97.6650 198.3144 0005149 331.6616  28.4352 15.47124821200967
LEDSAT
1 49069U 21073D   25037.73735053  .00047257  00000-0  10450-2 0  9998
2 49069  97.4059 115.7042 0013125 165.1186 195.0451 15.43592788192384
CUTE
1 49263U 21088D   25037.68243839  .00027183  00000-0  66944-3 0  9996
2 49263  97.4659 110.8301 0008804 333.5728  26.5068 15.40522851185465
TeikyoSat 4
1 49396U 21102B   25037.59955877  .00004655  00000-0  31688-3 0  9998
2 49396  97.4294  80.4139 0012464 189.4100 170.6896 15.06705955178021
Z-Sat
1 49399U 21102E   25037.85516899  .00007622  00000-0  43793-3 0  9994
2 49399  97.4007  83.0641 0019123 164.7382 195.4430 15.12623752178413
KOSEN 1
1 49402U 21102H   25037.62168173  .00011001  00000-0  54916-3 0  9997
2 49402  97.3914  85.4022 0017599 144.7922 215.4478 15.17527767178628
HO-113
1 50466U 21131B   25037.76244492  .00001314  00000-0  42682-3 0  9998
2 50466  98.5145 127.7436 0004955 136.5615 223.5965 14.40516211163765
IRIS-A
1 51044U 22002BN  25037.43852281  .00082149  00000-0  11542-2 0  9999
2 51044  97.3475 112.1765 0003858 270.7777  89.3036 15.56420504170510
Foresail-1
1 52766U 22057AL  25037.85274589  .00077648  00000-0  11020-2 0  9995
2 52766  97.5968 178.8497 0006154 357.4351   2.6871 15.56151081150610
SNUGLITE 2
1 52899U 22065F   25037.37736566  .00002878  00000-0  57580-3 0  9991
2 52899  98.1464 180.7446 0008285 134.9150 225.2725 14.62574827138477
IO-117
1 53106U 22080B   25034.56446200 -.00000003  00000-0  00000-0 0  9992
2 53106  70.1417 112.1355 0008120  52.7419 307.3980  6.42557586 60132
FO-118
1 54684U 22167C   25037.74814451  .00316859  00000-0  17504-2 0  9997
2 54684  97.6100 200.4229 0006999 328.5409  31.5438 15.78737198120558
SO-120
1 56992U 23084BU  25037.56014550  .01337086  10078-2  23691-2 0  9990
2 56992  97.5186 172.7050 0011637 295.7062  64.3015 16.02014213 92437
UmKA 1 (RS40S)
1 57172U 23091G   25037.89782917  .00010472  00000-0  59543-3 0  9998
2 57172  97.5788  93.9913 0016020  41.7637 318.4813 15.12958484 88910
CubeBel-2 (EU11S)
1 57175U 23091K   25037.86781462  .00013508  00000-0  71144-3 0  9996
2 57175  97.5790  94.4804 0014239  51.9738 308.2777 15.15646345 88948
VERONIKA
1 58261U 23174F   25037.78758137  .00062909  00000-0  13964-2 0  9993
2 58261  97.4301 119.2970 0007484 129.4153 230.7758 15.43468764 69594
KAFASAT
1 58317U 23174BP  25037.76796826  .00165375  00000-0  19323-2 0  9996
2 58317  97.4191 122.3266 0002986  88.6961 271.4638 15.61044284 69812
ENSO
1 58470U 23185J   25037.78724906  .00044583  00000-0  10774-2 0  9998
2 58470  97.3925 110.2612 0009040 160.5718 199.5874 15.40989022 66033
EIRSAT-1
1 58472U 23185L   25037.76174379  .00054764  00000-0  11667-2 0  9995
2 58472  97.3917 110.8652 0007963 161.6572 198.4966 15.44719887 66076
SONATE-2
1 59112U 24043Q   25037.31460352  .00025537  00000-0  89317-3 0  9995
2 59112  97.4957 166.7074 0011875 189.9942 170.1064 15.29450531 51455
MO-122
1 60209U 24125G   25036.82899390  .00025585  00000-0  88463-3 0  9992
2 60209  97.2951 250.2295 0020393 218.4843 141.4944 15.29687806 32996
GRBBeta
1 60237U 24128C   25037.62583599  .00007010  00000-0  55672-3 0  9995
2 60237  61.9923 147.6974 0039208  28.7051 331.6185 15.00744681 31730
Curium One
1 60242U 24128H   25037.61909529  .00011398  00000-0  86618-3 0  9993
2 60242  61.9826 147.4277 0039504  22.8188 337.4647 15.01954386 31741
ROBUSTA-3A
1 60243U 24128J   25037.65512845  .00011399  00000-0  87584-3 0  9993
2 60243  61.9894 147.7614 0037633  20.8234 339.4379 15.01591844 31746
CatSat
1 60246U 24125J   25037.56829262  .00014861  00000-0  55018-3 0  9991
2 60246  97.2741 251.3425 0045953 169.6959 190.5233 15.26745814 31193
HYPERVIEW-1G (RS66S)
1 61772U 24199AP  25037.82961037  .00028486  00000-0  10305-2 0  9990
2 61772  97.3745 267.3887 0014177 273.0615  86.9002 15.28293193 58163
AO-123
1 61781U 24199AY  25037.78744297  .00013279  00000-0  52461-3 0  9996
2 61781  97.3750 267.1503 0015223 274.0695  85.8803 15.25523967 58141
POEM 4 (BGS ARPIT)
1 62461U 24253C   25037.73161396  .00137282  00000-0  71440-3 0  9990
2 62461  55.2204  74.3672 0011928  30.0275 330.1456 15.80007431  5989
